Time,TemperatureF,DewpointF,PressureIn,WindDirection,WindDirectionDegrees,WindSpeedMPH,WindSpeedGustMPH,Humidity,HourlyPrecipIn,Conditions,Clouds,dailyrainin,SolarRadiationWatts/m^2,SoftwareType,DateUTC
2013-03-16 00:09:00,56.9,17.3,29.91,SSW,202,0.0,0.0,21,0.00,,,0.00,0,Wunderground v.1.15,2013-03-16 07:09:00,
2013-03-16 00:19:00,56.1,18.8,29.91,SSW,213,0.0,0.0,23,0.00,,,0.00,0,Wunderground v.1.15,2013-03-16 07:19:00,
2013-03-16 00:29:00,55.4,18.2,29.91,SW,229,0.0,0.0,23,0.00,,,0.00,0,Wunderground v.1.15,2013-03-16 07:29:00,
2013-03-16 00:39:00,54.4,19.3,29.91,SW,229,1.0,1.0,25,0.00,,,0.00,0,Wunderground v.1.15,2013-03-16 07:39:00,
2013-03-16 00:49:00,53.7,18.7,29.90,SW,217,0.0,0.0,25,0.00,,,0.00,0,Wunderground v.1.15,2013-03-16 07:49:00,
2013-03-16 01:00:00,54.3,19.2,29.89,SSW,198,0.0,0.0,25,0.00,,,0.00,0,Wunderground v.1.15,2013-03-16 08:00:00,
2013-03-16 01:09:00,55.0,18.8,29.90,SW,229,0.0,0.0,24,0.00,,,0.00,0,Wunderground v.1.15,2013-03-16 08:09:00,
2013-03-16 01:19:00,55.0,19.8,29.89,SW,229,0.0,0.0,25,0.00,,,0.00,0,Wunderground v.1.15,2013-03-16 08:19:00,
2013-03-16 01:29:00,54.4,20.2,29.89,SW,229,0.0,0.0,26,0.00,,,0.00,0,Wunderground v.1.15,2013-03-16 08:29:00,
2013-03-16 01:39:00,52.0,19.9,29.89,North,5,0.0,4.0,28,0.00,,,0.00,0,Wunderground v.1.15,2013-03-16 08:39:00,
2013-03-16 01:49:00,50.4,20.1,29.88,North,5,1.0,1.0,30,0.00,,,0.00,0,Wunderground v.1.15,2013-03-16 08:49:00,
2013-03-16 01:59:00,50.0,18.9,29.88,North,5,0.0,0.0,29,0.00,,,0.00,0,Wunderground v.1.15,2013-03-16 08:59:00,
2013-03-16 02:09:00,49.8,19.6,29.87,NW,307,0.0,3.0,30,0.00,,,0.00,0,Wunderground v.1.15,2013-03-16 09:09:00,
2013-03-16 02:19:00,49.3,19.9,29.87,WNW,288,1.0,1.0,31,0.00,,,0.00,0,Wunderground v.1.15,2013-03-16 09:19:00,
2013-03-16 02:29:00,48.5,19.2,29.87,WSW,257,0.0,0.0,31,0.00,,,0.00,0,Wunderground v.1.15,2013-03-16 09:29:00,
2013-03-16 02:39:00,48.3,19.8,29.86,WSW,257,0.0,0.0,32,0.00,,,0.00,0,Wunderground v.1.15,2013-03-16 09:39:00,
2013-03-16 02:49:00,47.8,19.3,29.86,WSW,257,0.0,0.0,32,0.00,,,0.00,0,Wunderground v.1.15,2013-03-16 09:49:00,
2013-03-16 02:59:00,47.5,19.8,29.86,West,263,1.0,1.0,33,0.00,,,0.00,0,Wunderground v.1.15,2013-03-16 09:59:00,
2013-03-16 03:09:00,48.2,20.4,29.86,West,263,0.0,0.0,33,0.00,,,0.00,0,Wunderground v.1.15,2013-03-16 10:09:00,
2013-03-16 03:19:00,47.8,20.8,29.86,West,263,0.0,0.0,34,0.00,,,0.00,0,Wunderground v.1.15,2013-03-16 10:19:00,
2013-03-16 03:29:00,47.6,19.9,29.85,West,263,0.0,0.0,33,0.00,,,0.00,0,Wunderground v.1.15,2013-03-16 10:29:00,
2013-03-16 03:39:00,46.9,20.6,29.85,West,263,0.0,0.0,35,0.00,,,0.00,0,Wunderground v.1.15,2013-03-16 10:39:00,
2013-03-16 03:49:00,45.8,20.3,29.85,West,267,0.0,0.0,36,0.00,,,0.00,0,Wunderground v.1.15,2013-03-16 10:49:00,
2013-03-16 03:59:00,45.3,20.5,29.85,West,267,0.0,0.0,37,0.00,,,0.00,0,Wunderground v.1.15,2013-03-16 10:59:00,
2013-03-16 04:09:00,45.2,20.4,29.85,NW,309,0.0,4.0,37,0.00,,,0.00,0,Wunderground v.1.15,2013-03-16 11:09:00,
2013-03-16 04:19:00,45.6,21.4,29.85,NW,304,0.0,0.0,38,0.00,,,0.00,0,Wunderground v.1.15,2013-03-16 11:19:00,
2013-03-16 04:29:00,44.8,21.3,29.85,WSW,242,0.0,0.0,39,0.00,,,0.00,0,Wunderground v.1.15,2013-03-16 11:29:00,
2013-03-16 04:39:00,43.7,20.9,29.85,WSW,242,0.0,0.0,40,0.00,,,0.00,0,Wunderground v.1.15,2013-03-16 11:39:00,
2013-03-16 04:49:00,43.0,20.9,29.84,WSW,242,0.0,0.0,41,0.00,,,0.00,0,Wunderground v.1.15,2013-03-16 11:49:00,
2013-03-16 04:59:00,42.6,21.1,29.84,WNW,284,0.0,0.0,42,0.00,,,0.00,0,Wunderground v.1.15,2013-03-16 11:59:00,
2013-03-16 05:10:00,41.9,21.0,29.84,WNW,284,0.0,0.0,43,0.00,,,0.00,0,Wunderground v.1.15,2013-03-16 12:10:00,
2013-03-16 05:19:00,41.9,21.0,29.84,SSW,196,0.0,0.0,43,0.00,,,0.00,0,Wunderground v.1.15,2013-03-16 12:19:00,
2013-03-16 05:29:00,43.2,21.6,29.84,SSW,205,1.0,5.0,42,0.00,,,0.00,0,Wunderground v.1.15,2013-03-16 12:29:00,
2013-03-16 05:39:00,44.7,21.8,29.84,SW,230,1.0,1.0,40,0.00,,,0.00,0,Wunderground v.1.15,2013-03-16 12:39:00,
2013-03-16 05:49:00,45.1,22.2,29.85,SSE,153,0.0,0.0,40,0.00,,,0.00,0,Wunderground v.1.15,2013-03-16 12:49:00,
2013-03-16 05:59:00,45.1,22.2,29.84,SW,223,0.0,0.0,40,0.00,,,0.00,0,Wunderground v.1.15,2013-03-16 12:59:00,
2013-03-16 06:09:00,44.8,21.9,29.84,SW,225,0.0,0.0,40,0.00,,,0.00,0,Wunderground v.1.15,2013-03-16 13:09:00,
2013-03-16 06:19:00,44.9,22.0,29.85,SW,222,0.0,0.0,40,0.00,,,0.00,0,Wunderground v.1.15,2013-03-16 13:19:00,
2013-03-16 06:29:00,45.5,21.9,29.85,SE,146,0.0,0.0,39,0.00,,,0.00,0,Wunderground v.1.15,2013-03-16 13:29:00,
2013-03-16 06:39:00,45.6,21.4,29.85,SW,228,0.0,0.0,38,0.00,,,0.00,9,Wunderground v.1.15,2013-03-16 13:39:00,
2013-03-16 06:49:00,45.4,21.2,29.85,SW,228,0.0,0.0,38,0.00,,,0.00,23,Wunderground v.1.15,2013-03-16 13:49:00,
2013-03-16 06:59:00,45.2,21.7,29.85,South,185,0.0,0.0,39,0.00,,,0.00,47,Wunderground v.1.15,2013-03-16 13:59:00,
2013-03-16 07:09:00,46.0,22.4,29.86,SW,221,0.0,3.0,39,0.00,,,0.00,86,Wunderground v.1.15,2013-03-16 14:09:00,
2013-03-16 07:19:00,47.0,22.7,29.85,SW,221,0.0,3.0,38,0.00,,,0.00,130,Wunderground v.1.15,2013-03-16 14:19:00,
2013-03-16 07:29:00,48.4,22.0,29.86,WSW,240,0.0,3.0,35,0.00,,,0.00,179,Wunderground v.1.15,2013-03-16 14:29:00,
2013-03-16 07:39:00,50.3,23.0,29.86,WSW,240,0.0,3.0,34,0.00,,,0.00,225,Wunderground v.1.15,2013-03-16 14:39:00,
2013-03-16 07:49:00,52.9,23.0,29.86,SSE,155,0.0,3.0,31,0.00,,,0.00,260,Wunderground v.1.15,2013-03-16 14:49:00,
2013-03-16 07:59:00,55.3,22.7,29.86,SSE,163,0.0,3.0,28,0.00,,,0.00,299,Wunderground v.1.15,2013-03-16 14:59:00,
2013-03-16 08:09:00,57.6,23.8,29.86,SSE,155,0.0,0.0,27,0.00,,,0.00,339,Wunderground v.1.15,2013-03-16 15:09:00,
2013-03-16 08:20:00,59.6,24.6,29.86,ESE,122,0.0,0.0,26,0.00,,,0.00,378,Wunderground v.1.15,2013-03-16 15:20:00,
2013-03-16 08:29:00,61.1,21.9,29.86,South,188,0.0,0.0,22,0.00,,,0.00,415,Wunderground v.1.15,2013-03-16 15:29:00,
2013-03-16 08:39:00,63.2,21.4,29.86,South,188,3.0,4.0,20,0.00,,,0.00,454,Wunderground v.1.15,2013-03-16 15:39:00,
2013-03-16 08:49:00,65.3,24.3,29.86,SSE,153,1.0,1.0,21,0.00,,,0.00,487,Wunderground v.1.15,2013-03-16 15:49:00,
2013-03-16 08:59:00,66.8,21.9,29.86,South,178,2.0,2.0,18,0.00,,,0.00,522,Wunderground v.1.15,2013-03-16 15:59:00,
2013-03-16 09:09:00,68.1,21.6,29.85,SSW,194,2.0,2.0,17,0.00,,,0.00,557,Wunderground v.1.15,2013-03-16 16:09:00,
2013-03-16 09:19:00,69.4,21.2,29.86,SSE,157,1.0,1.0,16,0.00,,,0.00,591,Wunderground v.1.15,2013-03-16 16:19:00,
2013-03-16 09:29:00,70.9,20.9,29.86,SSW,213,3.0,5.0,15,0.00,,,0.00,622,Wunderground v.1.15,2013-03-16 16:29:00,
2013-03-16 09:39:00,72.2,20.3,29.85,SSE,167,1.0,1.0,14,0.00,,,0.00,652,Wunderground v.1.15,2013-03-16 16:39:00,
2013-03-16 09:49:00,73.9,21.7,29.85,South,181,1.0,1.0,14,0.00,,,0.00,680,Wunderground v.1.15,2013-03-16 16:49:00,
2013-03-16 09:59:00,75.6,19.4,29.84,SSW,200,2.0,2.0,12,0.00,,,0.00,707,Wunderground v.1.15,2013-03-16 16:59:00,
2013-03-16 10:09:00,76.4,20.0,29.84,South,172,3.0,3.0,12,0.00,,,0.00,733,Wunderground v.1.15,2013-03-16 17:09:00,
2013-03-16 10:19:00,77.3,18.7,29.83,SE,132,3.0,3.0,11,0.00,,,0.00,756,Wunderground v.1.15,2013-03-16 17:19:00,
2013-03-16 10:29:00,78.1,19.3,29.83,SSE,149,6.0,6.0,11,0.00,,,0.00,780,Wunderground v.1.15,2013-03-16 17:29:00,
2013-03-16 10:39:00,78.5,19.6,29.83,SSE,167,6.0,6.0,11,0.00,,,0.00,802,Wunderground v.1.15,2013-03-16 17:39:00,
2013-03-16 10:49:00,79.2,12.8,29.83,WSW,244,8.0,8.0,8,0.00,,,0.00,819,Wunderground v.1.15,2013-03-16 17:49:00,
2013-03-16 10:59:00,79.6,10.0,29.83,West,273,10.0,16.0,7,0.00,,,0.00,838,Wunderground v.1.15,2013-03-16 17:59:00,
2013-03-16 11:09:00,79.0,9.6,29.83,WSW,247,10.0,14.0,7,0.00,,,0.00,854,Wunderground v.1.15,2013-03-16 18:09:00,
2013-03-16 11:19:00,79.0,9.6,29.82,SW,236,9.0,16.0,7,0.00,,,0.00,868,Wunderground v.1.15,2013-03-16 18:19:00,
2013-03-16 11:29:00,79.6,10.0,29.82,WSW,242,12.0,15.0,7,0.00,,,0.00,881,Wunderground v.1.15,2013-03-16 18:29:00,
2013-03-16 11:39:00,79.6,6.6,29.81,SW,235,12.0,12.0,6,0.00,,,0.00,891,Wunderground v.1.15,2013-03-16 18:39:00,
2013-03-16 11:50:00,79.9,10.3,29.81,West,259,11.0,16.0,7,0.00,,,0.00,904,Wunderground v.1.15,2013-03-16 18:50:00,
2013-03-16 12:00:00,80.1,10.4,29.81,WSW,245,13.0,13.0,7,0.00,,,0.00,909,Wunderground v.1.15,2013-03-16 19:00:00,
2013-03-16 12:10:00,80.4,7.2,29.80,West,263,12.0,12.0,6,0.00,,,0.00,914,Wunderground v.1.15,2013-03-16 19:10:00,
2013-03-16 12:20:00,80.5,10.7,29.79,WSW,241,12.0,24.0,7,0.00,,,0.00,923,Wunderground v.1.15,2013-03-16 19:20:00,
2013-03-16 12:30:00,81.3,11.3,29.78,West,261,10.0,24.0,7,0.00,,,0.00,853,Wunderground v.1.15,2013-03-16 19:30:00,
2013-03-16 12:40:00,80.0,13.4,29.78,WSW,248,12.0,24.0,8,0.00,,,0.00,336,Wunderground v.1.15,2013-03-16 19:40:00,
2013-03-16 12:50:00,78.8,12.5,29.77,WSW,243,11.0,24.0,8,0.00,,,0.00,415,Wunderground v.1.15,2013-03-16 19:50:00,
2013-03-16 13:00:00,78.5,12.2,29.76,SSW,200,9.0,24.0,8,0.00,,,0.00,346,Wunderground v.1.15,2013-03-16 20:00:00,
2013-03-16 13:10:00,78.0,8.9,29.76,West,262,10.0,10.0,7,0.00,,,0.00,308,Wunderground v.1.15,2013-03-16 20:10:00,
2013-03-16 13:20:00,78.1,11.9,29.76,WSW,242,8.0,8.0,8,0.00,,,0.00,246,Wunderground v.1.15,2013-03-16 20:20:00,
2013-03-16 13:30:00,77.6,11.6,29.76,West,260,11.0,24.0,8,0.00,,,0.00,253,Wunderground v.1.15,2013-03-16 20:30:00,
2013-03-16 13:40:00,77.4,11.4,29.75,WSW,245,8.0,24.0,8,0.00,,,0.00,281,Wunderground v.1.15,2013-03-16 20:40:00,
2013-03-16 13:50:00,77.6,11.6,29.75,WNW,297,7.0,24.0,8,0.00,,,0.00,345,Wunderground v.1.15,2013-03-16 20:50:00,
2013-03-16 14:00:00,78.0,11.9,29.75,West,263,8.0,24.0,8,0.00,,,0.00,338,Wunderground v.1.15,2013-03-16 21:00:00,
2013-03-16 14:10:00,78.0,11.9,29.74,West,271,10.0,24.0,8,0.00,,,0.00,380,Wunderground v.1.15,2013-03-16 21:10:00,
2013-03-16 14:20:00,78.0,14.5,29.73,WNW,282,13.0,13.0,9,0.00,,,0.00,450,Wunderground v.1.15,2013-03-16 21:20:00,
2013-03-16 14:30:00,78.6,15.0,29.73,WSW,242,11.0,24.0,9,0.00,,,0.00,355,Wunderground v.1.15,2013-03-16 21:30:00,
2013-03-16 14:40:00,77.8,14.4,29.73,WSW,256,14.0,24.0,9,0.00,,,0.00,301,Wunderground v.1.15,2013-03-16 21:40:00,
2013-03-16 14:50:00,79.5,13.0,29.72,WSW,248,15.0,24.0,8,0.00,,,0.00,582,Wunderground v.1.15,2013-03-16 21:50:00,
2013-03-16 15:00:00,80.1,13.4,29.73,SW,236,16.0,16.0,8,0.00,,,0.00,909,Wunderground v.1.15,2013-03-16 22:00:00,
2013-03-16 15:10:00,81.1,14.2,29.73,WSW,257,16.0,20.0,8,0.00,,,0.00,884,Wunderground v.1.15,2013-03-16 22:10:00,
2013-03-16 15:20:00,81.2,11.2,29.72,SW,234,16.0,16.0,7,0.00,,,0.00,854,Wunderground v.1.15,2013-03-16 22:20:00,
2013-03-16 15:30:00,81.2,11.2,29.72,SW,216,15.0,15.0,7,0.00,,,0.00,814,Wunderground v.1.15,2013-03-16 22:30:00,
2013-03-16 15:40:00,80.6,13.8,29.72,SSW,206,16.0,16.0,8,0.00,,,0.00,777,Wunderground v.1.15,2013-03-16 22:40:00,
2013-03-16 15:50:00,80.8,14.0,29.72,WSW,249,13.0,18.0,8,0.00,,,0.00,707,Wunderground v.1.15,2013-03-16 22:50:00,
2013-03-16 16:10:00,81.0,14.1,29.71,WSW,253,12.0,12.0,8,0.00,,,0.00,642,Wunderground v.1.15,2013-03-16 23:10:00,
2013-03-16 16:20:00,80.7,10.9,29.71,SW,215,12.0,14.0,7,0.00,,,0.00,563,Wunderground v.1.15,2013-03-16 23:20:00,
2013-03-16 16:30:00,80.2,10.5,29.71,SW,236,13.0,13.0,7,0.00,,,0.00,526,Wunderground v.1.15,2013-03-16 23:30:00,
2013-03-16 16:40:00,80.3,10.6,29.72,SW,229,11.0,11.0,7,0.00,,,0.00,478,Wunderground v.1.15,2013-03-16 23:40:00,
2013-03-16 16:50:00,79.8,6.8,29.72,West,275,11.0,14.0,6,0.00,,,0.00,410,Wunderground v.1.15,2013-03-16 23:50:00,
2013-03-16 17:00:00,79.1,6.3,29.72,SW,221,12.0,12.0,6,0.00,,,0.00,343,Wunderground v.1.15,2013-03-17 00:00:00,
2013-03-16 17:10:00,78.7,6.0,29.72,West,268,10.0,11.0,6,0.00,,,0.00,288,Wunderground v.1.15,2013-03-17 00:10:00,
2013-03-16 17:20:00,78.5,9.2,29.72,WSW,254,9.0,11.0,7,0.00,,,0.00,237,Wunderground v.1.15,2013-03-17 00:20:00,
2013-03-16 17:30:00,78.1,5.5,29.72,West,270,8.0,10.0,6,0.00,,,0.00,206,Wunderground v.1.15,2013-03-17 00:30:00,
2013-03-16 17:40:00,77.7,5.2,29.72,SW,236,7.0,14.0,6,0.00,,,0.00,146,Wunderground v.1.15,2013-03-17 00:40:00,
2013-03-16 17:50:00,77.2,4.9,29.73,SW,236,8.0,9.0,6,0.00,,,0.00,98,Wunderground v.1.15,2013-03-17 00:50:00,
2013-03-16 18:00:00,76.7,4.5,29.73,WSW,254,4.0,4.0,6,0.00,,,0.00,62,Wunderground v.1.15,2013-03-17 01:00:00,
2013-03-16 18:10:00,75.5,3.7,29.73,SW,233,7.0,22.0,6,0.00,,,0.00,26,Wunderground v.1.15,2013-03-17 01:10:00,
2013-03-16 18:20:00,74.4,6.2,29.74,SW,232,1.0,1.0,7,0.00,,,0.00,14,Wunderground v.1.15,2013-03-17 01:20:00,
2013-03-16 18:30:00,73.3,5.4,29.74,WSW,239,0.0,22.0,7,0.00,,,0.00,5,Wunderground v.1.15,2013-03-17 01:30:00,
2013-03-16 18:40:00,72.3,7.6,29.74,South,179,0.0,22.0,8,0.00,,,0.00,0,Wunderground v.1.15,2013-03-17 01:40:00,
2013-03-16 18:50:00,71.3,6.9,29.74,SSW,209,0.0,22.0,8,0.00,,,0.00,0,Wunderground v.1.15,2013-03-17 01:50:00,
2013-03-16 19:00:00,70.7,9.0,29.74,South,180,1.0,1.0,9,0.00,,,0.00,0,Wunderground v.1.15,2013-03-17 02:00:00,
2013-03-16 19:10:00,70.0,8.5,29.75,South,180,1.0,1.0,9,0.00,,,0.00,0,Wunderground v.1.15,2013-03-17 02:10:00,
2013-03-16 19:20:00,69.6,10.5,29.75,SSW,198,0.0,0.0,10,0.00,,,0.00,0,Wunderground v.1.15,2013-03-17 02:20:00,
2013-03-16 19:30:00,69.7,10.6,29.76,SE,133,2.0,2.0,10,0.00,,,0.00,0,Wunderground v.1.15,2013-03-17 02:30:00,
2013-03-16 19:40:00,69.9,10.8,29.76,SSE,154,2.0,2.0,10,0.00,,,0.00,0,Wunderground v.1.15,2013-03-17 02:40:00,
2013-03-16 19:50:00,69.5,10.5,29.76,SE,135,2.0,2.0,10,0.00,,,0.00,0,Wunderground v.1.15,2013-03-17 02:50:00,
2013-03-16 20:00:00,69.2,10.2,29.77,South,169,1.0,1.0,10,0.00,,,0.00,0,Wunderground v.1.15,2013-03-17 03:00:00,
2013-03-16 20:10:00,68.9,10.0,29.77,SSE,165,0.0,7.0,10,0.00,,,0.00,0,Wunderground v.1.15,2013-03-17 03:10:00,
2013-03-16 20:19:00,68.8,9.9,29.77,WSW,248,1.0,1.0,10,0.00,,,0.00,0,Wunderground v.1.15,2013-03-17 03:19:00,
2013-03-16 20:29:00,68.6,11.9,29.76,SSW,209,1.0,1.0,11,0.00,,,0.00,0,Wunderground v.1.15,2013-03-17 03:29:00,
2013-03-16 20:40:00,68.7,12.0,29.77,SW,234,1.0,8.0,11,0.00,,,0.00,0,Wunderground v.1.15,2013-03-17 03:40:00,
2013-03-16 20:50:00,68.4,11.8,29.78,SW,233,4.0,7.0,11,0.00,,,0.00,0,Wunderground v.1.15,2013-03-17 03:50:00,
2013-03-16 21:00:00,67.5,11.1,29.77,SW,221,5.0,5.0,11,0.00,,,0.00,0,Wunderground v.1.15,2013-03-17 04:00:00,
2013-03-16 21:10:00,66.3,12.1,29.78,WSW,257,7.0,7.0,12,0.00,,,0.00,0,Wunderground v.1.15,2013-03-17 04:10:00,
2013-03-16 21:20:00,65.1,13.0,29.78,WSW,242,5.0,13.0,13,0.00,,,0.00,0,Wunderground v.1.15,2013-03-17 04:20:00,
2013-03-16 21:30:00,65.1,13.0,29.78,SW,234,6.0,6.0,13,0.00,,,0.00,0,Wunderground v.1.15,2013-03-17 04:30:00,
2013-03-16 21:40:00,65.1,13.0,29.78,WSW,247,6.0,9.0,13,0.00,,,0.00,0,Wunderground v.1.15,2013-03-17 04:40:00,
2013-03-16 21:50:00,64.7,12.7,29.79,West,263,5.0,5.0,13,0.00,,,0.00,0,Wunderground v.1.15,2013-03-17 04:50:00,
2013-03-16 22:00:00,65.2,13.0,29.79,West,260,3.0,3.0,13,0.00,,,0.00,0,Wunderground v.1.15,2013-03-17 05:00:00,
2013-03-16 22:09:00,65.2,13.0,29.79,WSW,251,1.0,11.0,13,0.00,,,0.00,0,Wunderground v.1.15,2013-03-17 05:09:00,
2013-03-16 22:20:00,65.1,13.0,29.80,West,276,1.0,1.0,13,0.00,,,0.00,0,Wunderground v.1.15,2013-03-17 05:20:00,
2013-03-16 22:30:00,64.9,11.0,29.81,West,276,0.0,11.0,12,0.00,,,0.00,0,Wunderground v.1.15,2013-03-17 05:30:00,
2013-03-16 22:40:00,64.4,10.6,29.80,West,276,0.0,11.0,12,0.00,,,0.00,0,Wunderground v.1.15,2013-03-17 05:40:00,
2013-03-16 22:50:00,64.3,10.5,29.80,West,281,0.0,11.0,12,0.00,,,0.00,0,Wunderground v.1.15,2013-03-17 05:50:00,
2013-03-16 23:00:00,64.9,11.0,29.80,WNW,288,1.0,1.0,12,0.00,,,0.00,0,Wunderground v.1.15,2013-03-17 06:00:00,
2013-03-16 23:10:00,64.9,11.0,29.80,West,279,0.0,11.0,12,0.00,,,0.00,0,Wunderground v.1.15,2013-03-17 06:10:00,
2013-03-16 23:20:00,63.8,11.9,29.80,West,272,0.0,11.0,13,0.00,,,0.00,0,Wunderground v.1.15,2013-03-17 06:20:00,
2013-03-16 23:30:00,64.1,12.2,29.80,WSW,250,3.0,3.0,13,0.00,,,0.00,0,Wunderground v.1.15,2013-03-17 06:30:00,
2013-03-16 23:40:00,64.0,12.1,29.80,West,265,3.0,3.0,13,0.00,,,0.00,0,Wunderground v.1.15,2013-03-17 06:40:00,
2013-03-16 23:50:00,63.9,12.0,29.80,SW,233,2.0,2.0,13,0.00,,,0.00,0,Wunderground v.1.15,2013-03-17 06:50:00,